This demonstration page uses our WeatherBlox Daily Observations layout. Learn more.

Left ArrowRight Arrow

Hourly Observations for January 29, 2015

Temp ( °F °C ) Dew Point ( °F °C ) Humidity (%) Winds ( mph kmh ) Pressure ( in mb ) Visibility ( mi km ) Precip ( " mm )
12:15 am 00:15 Clear 32 0 14 -10 47 47 SSE 15 24 30.06 1018 10 16.0934 N/A
12:35 am 00:35 Clear 32 0 14 -10 47 47 S 14 22 30.06 1018 10 16.0934 N/A
12:56 am 00:56 Clear 34 1 14 -10 44 44 S 13 20 30.06 1018 10 16.0934 N/A
1:15 am 01:15 Clear 34 1 12 -11 41 41 S 15 24 30.06 1018 10 16.0934 N/A
1:35 am 01:35 Clear 34 1 12 -11 41 41 S 13 20 30.03 1017 10 16.0934 N/A
1:56 am 01:56 Clear 34 1 12 -11 41 41 S 16 26 30.03 1017 10 16.0934 N/A
2:15 am 02:15 Clear 34 1 12 -11 41 41 S 18 30 30 1016 10 16.0934 N/A
2:34 am 02:34 Clear 34 1 12 -11 41 41 S 15 24 30 1016 10 16.0934 N/A
2:55 am 02:55 Clear 36 2 12 -11 38 38 S 18 30 29.97 1015 10 16.0934 N/A
3:15 am 03:15 Partly Cloudy 36 2 12 -11 38 38 S 16 26 29.97 1015 10 16.0934 N/A
3:35 am 03:35 Partly Cloudy 36 2 12 -11 38 38 S 16 26 29.91 1013 10 16.0934 N/A
3:55 am 03:55 Partly Cloudy 36 2 14 -10 41 41 S 14 22 29.91 1013 10 16.0934 N/A
4:15 am 04:15 Partly Cloudy 36 2 16 -9 44 44 S 14 22 29.91 1013 10 16.0934 N/A
4:36 am 04:36 Partly Cloudy 37 3 16 -9 41 41 S 15 24 29.88 1012 10 16.0934 N/A
4:55 am 04:55 Clear 37 3 16 -9 41 41 S 14 22 29.85 1011 10 16.0934 N/A
5:15 am 05:15 Clear 37 3 16 -9 41 41 S 15 24 29.85 1011 10 16.0934 N/A
5:36 am 05:36 Clear 37 3 18 -8 45 45 S 15 24 29.85 1011 10 16.0934 N/A
5:55 am 05:55 Clear 37 3 18 -8 45 45 S 15 24 29.83 1010 10 16.0934 N/A
6:15 am 06:15 Clear 37 3 19 -7 48 48 S 16 26 29.83 1010 10 16.0934 N/A
6:36 am 06:36 Clear 37 3 21 -6 52 52 S 16 26 29.83 1010 10 16.0934 N/A
6:55 am 06:55 Clear 37 3 21 -6 52 52 S 14 22 29.83 1010 10 16.0934 N/A
7:15 am 07:15 Clear 37 3 23 -5 56 56 S 15 24 29.8 1009 10 16.0934 N/A
7:36 am 07:36 Clear 37 3 23 -5 56 56 S 13 20 29.83 1010 10 16.0934 N/A
7:55 am 07:55 Sunny 37 3 23 -5 56 56 S 13 20 29.83 1010 10 16.0934 N/A
8:15 am 08:15 Sunny 37 3 23 -5 56 56 S 13 20 29.8 1009 10 16.0934 N/A
8:36 am 08:36 Sunny 37 3 25 -4 60 60 S 13 20 29.8 1009 10 16.0934 N/A
8:55 am 08:55 Sunny 39 4 25 -4 56 56 S 14 22 29.8 1009 10 16.0934 N/A
9:15 am 09:15 Sunny 39 4 25 -4 56 56 S 12 19 29.8 1009 10 16.0934 N/A
9:36 am 09:36 Sunny 41 5 25 -4 53 53 SSW 13 20 29.8 1009 10 16.0934 N/A
9:55 am 09:55 Mostly Cloudy 41 5 25 -4 53 53 SSW 12 19 29.8 1009 10 16.0934 N/A
10:15 am 10:15 Cloudy 41 5 27 -3 57 57 S 10 17 29.8 1009 10 16.0934 N/A
10:35 am 10:35 Cloudy 43 6 28 -2 57 57 WSW 25 41 29.83 1010 10 16.0934 N/A
10:55 am 10:55 Mostly Cloudy 45 7 28 -2 53 53 W 23 37 29.83 1010 10 16.0934 N/A
11:15 am 11:15 Mostly Cloudy 43 6 28 -2 57 57 W 25 41 29.85 1011 10 16.0934 N/A
11:35 am 11:35 Cloudy 39 4 28 -2 65 65 W 23 37 29.85 1011 7 11.26538 N/A
11:55 am 11:55 Cloudy 39 4 28 -2 65 65 W 17 28 29.85 1011 7 11.26538 N/A
12:16 pm 12:16 Cloudy 37 3 28 -2 70 70 W 22 35 29.88 1012 5 8.0467 N/A
12:35 pm 12:35 Cloudy 37 3 28 -2 70 70 W 24 39 29.88 1012 3 4.82802 N/A
12:55 pm 12:55 Cloudy 37 3 30 -1 75 75 W 17 28 29.91 1013 2.5 4.02335 N/A
1:16 pm 13:16 Cloudy 36 2 34 1 93 93 W 24 39 29.91 1013 3 4.82802 N/A
1:35 pm 13:35 Cloudy 36 2 36 2 100 100 W 21 33 29.91 1013 2 3.21868 N/A
1:55 pm 13:55 Cloudy 34 1 34 1 100 100 W 20 31 29.97 1015 2 3.21868 N/A
2:16 pm 14:16 Cloudy 34 1 34 1 100 100 W 22 35 29.97 1015 2 3.21868 N/A
2:35 pm 14:35 Cloudy 34 1 34 1 100 100 WNW 17 28 29.97 1015 2.5 4.02335 N/A
2:56 pm 14:56 Cloudy 34 1 34 1 100 100 WNW 21 33 30 1016 2 3.21868 N/A
3:15 pm 15:15 Cloudy 34 1 34 1 100 100 WNW 17 28 30.03 1017 1.75 2.816345 N/A
3:35 pm 15:35 Cloudy 34 1 N/A N/A WNW 18 30 30.03 1017 1.5 2.41401 N/A
3:56 pm 15:56 Cloudy 34 1 34 1 100 100 WNW 17 28 30.06 1018 2 3.21868 N/A
4:15 pm 16:15 Cloudy 34 1 34 1 100 100 WNW 14 22 30.06 1018 1.75 2.816345 N/A
4:35 pm 16:35 Cloudy 34 1 34 1 100 100 WNW 14 22 30.06 1018 4 6.43736 N/A
4:56 pm 16:56 Cloudy 34 1 34 1 100 100 WNW 17 28 30.09 1019 4 6.43736 N/A
5:15 pm 17:15 Cloudy 34 1 34 1 100 100 WNW 14 22 30.09 1019 3 4.82802 N/A
5:35 pm 17:35 Cloudy 32 0 32 0 100 100 WNW 12 19 30.12 1020 3 4.82802 N/A
5:56 pm 17:56 Cloudy 32 0 32 0 100 100 NW 18 30 30.12 1020 4 6.43736 N/A
6:15 pm 18:15 Cloudy 32 0 32 0 100 100 NW 16 26 30.15 1021 4 6.43736 N/A
6:35 pm 18:35 Cloudy 32 0 32 0 100 100 NW 17 28 30.15 1021 4 6.43736 N/A
6:55 pm 18:55 Cloudy 32 0 32 0 100 100 NW 16 26 30.18 1022 5 8.0467 N/A
7:15 pm 19:15 Cloudy 32 0 32 0 100 100 WNW 14 22 30.18 1022 7 11.26538 N/A
7:35 pm 19:35 Cloudy 32 0 32 0 100 100 WNW 15 24 30.21 1023 7 11.26538 N/A
7:55 pm 19:55 Cloudy 32 0 32 0 100 100 NW 14 22 30.21 1023 7 11.26538 N/A
8:15 pm 20:15 Cloudy 32 0 32 0 100 100 WNW 14 22 30.21 1023 7 11.26538 N/A
8:35 pm 20:35 Cloudy 32 0 32 0 100 100 NW 10 17 30.24 1024 7 11.26538 N/A
8:55 pm 20:55 Cloudy 32 0 32 0 100 100 NW 10 17 30.24 1024 7 11.26538 N/A
9:15 pm 21:15 Cloudy 32 0 30 -1 93 93 WNW 10 17 30.24 1024 7 11.26538 N/A
9:36 pm 21:36 Cloudy 32 0 30 -1 93 93 WNW 16 26 30.24 1024 5 8.0467 N/A
9:55 pm 21:55 Cloudy 32 0 30 -1 93 93 WNW 12 19 30.24 1024 7 11.26538 N/A
10:15 pm 22:15 Cloudy 32 0 28 -2 87 87 WNW 10 17 30.24 1024 7 11.26538 N/A
10:36 pm 22:36 Cloudy 32 0 28 -2 87 87 WNW 9 15 30.24 1024 7 11.26538 N/A
10:55 pm 22:55 Cloudy 32 0 28 -2 87 87 WNW 13 20 30.24 1024 7 11.26538 N/A
11:15 pm 23:15 Mostly Cloudy 32 0 28 -2 87 87 WNW 13 20 30.24 1024 7 11.26538 N/A
11:36 pm 23:36 Cloudy 32 0 27 -3 80 80 WNW 10 17 30.24 1024 7 11.26538 N/A
11:55 pm 23:55 Cloudy 32 0 25 -4 75 75 WNW 9 15 30.24 1024 10 16.0934 N/A

Powered by AerisWeather